This is the latest recevied weather packets stored in our database for station/object K1ZK-13. If no packets are shown the sender has not sent any weather packets the latest 10 day(s).
| Time | Temp. | Humidity | Pressure | Rain* | Wind** | Luminosity | Snow |
|---|---|---|---|---|---|---|---|
| 1777996813 | 22.78° C | 56% | 1003.4 hPa | 0 mm | - | 578 W/m² | - |
| 1777996509 | 22.78° C | 56% | 1003.6 hPa | 0 mm | - | 553 W/m² | - |
| 1777996205 | 23.33° C | 55% | 1003.6 hPa | 0 mm | - | 585 W/m² | - |
| 1777995902 | 23.33° C | 53% | 1003.5 hPa | 0 mm | - | 641 W/m² | - |
| 1777995598 | 22.78° C | 55% | 1003.8 hPa | 0 mm | - | 601 W/m² | - |
| 1777995296 | 22.78° C | 59% | 1004 hPa | 0 mm | - | 592 W/m² | - |
| 1777994992 | 22.22° C | 58% | 1004 hPa | 0 mm | - | 618 W/m² | - |
| 1777994689 | 21.67° C | 56% | 1004.1 hPa | 0 mm | - | 604 W/m² | - |
| 1777994384 | 21.67° C | 57% | 1004.3 hPa | 0 mm | - | 593 W/m² | - |
| 1777994080 | 21.67° C | 58% | 1004.3 hPa | 0 mm | - | 589 W/m² | - |
| 1777993777 | 21.11° C | 61% | 1004.4 hPa | 0 mm | - | 541 W/m² | - |
| 1777993474 | 20.56° C | 60% | 1004.3 hPa | 0 mm | - | 447 W/m² | - |
| 1777993173 | 20.56° C | 59% | 1004.5 hPa | 0 mm | - | 511 W/m² | - |
| 1777992872 | 21.11° C | 59% | 1004.5 hPa | 0 mm | - | 515 W/m² | - |
| 1777992570 | 20.56° C | 59% | 1004.7 hPa | 0 mm | - | 450 W/m² | - |
| 1777992268 | 20.56° C | 59% | 1004.7 hPa | 0 mm | - | 531 W/m² | - |
| 1777991965 | 21.11° C | 57% | 1005 hPa | 0 mm | - | 515 W/m² | - |
| 1777991662 | 21.11° C | 59% | 1004.9 hPa | 0 mm | - | 544 W/m² | - |
| 1777991359 | 20.56° C | 59% | 1004.8 hPa | 0 mm | - | 528 W/m² | - |
| 1777991056 | 20.56° C | 61% | 1005 hPa | 0 mm | - | 498 W/m² | - |
| 1777990753 | 20° C | 61% | 1005 hPa | 0 mm | - | 512 W/m² | - |
| 1777990451 | 19.44° C | 61% | 1005.3 hPa | 0 mm | - | 506 W/m² | - |
| 1777989844 | 18.33° C | 63% | 1005.1 hPa | 0 mm | - | 362 W/m² | - |
| 1777989541 | 17.22° C | 67% | 1005.2 hPa | 0 mm | - | 545 W/m² | - |
| 1777989237 | 16.11° C | 71% | 1005.2 hPa | 0 mm | - | 198 W/m² | - |
* Rain latest hour (hover to see other rain measurements)
** Current wind speed in m/s (hover to see current wind gust speed)